{"data":{"norad_id":49213,"epoch":"2026-09-19T17:36:34.948512Z","epoch_age_seconds":91974,"freshness":"FRESH","line1":"1 49213U 21083AD  26262.73373783 -.00000008  00000+0 -52441-4 0  9991","line2":"2 49213  87.9141 255.5800 0001985 102.3300 257.8056 13.20771822249290","mean_motion":13.20771822,"eccentricity":0.0001985,"inclination_deg":87.9141,"raan_deg":255.58,"arg_perigee_deg":102.33,"mean_anomaly_deg":257.8056,"bstar":-5.2441e-5,"rev_number":24929,"period_min":109.02715942406,"perigee_km":1180.2726959329,"apogee_km":1183.2739803371,"semimajor_km":7559.910338135,"source":"CELESTRAK","updated_at":"2026-09-20T09:00:44.666242Z"}}